Regional Weather Roundup
Issued by NWS

Home | Current Version | Previous Version | Text Only | Print | Product List | Glossary Off
Versions: 1 2 3 4 5 6 7 8 9 10 11 12 13 14 15 16 17 18 19 20 21 22 23 24 25 26 27 28 29 30 31 32 33 34 35 36 37 38 39 40 41 42 43 44 45 46 47 48 49 50

969
ASUS44 KMEG 311610
RWRTN
TENNESSEE HOURLY STATE WEATHER ROUNDUP
NATIONAL WEATHER SERVICE MEMPHIS TN
1100 AM CDT WED AUG 31 2016

TNZ002-004-019-021-049-052-054-088>092-311700-
WEST TENNESSEE

CITY           SKY/WX    TMP DP  RH WIND       PRES   REMARKS
MEMPHIS INTL   MOSUNNY   92  73  53 VRB3      30.00F HX 100
NWS MEMPHIS      N/A     89 N/A N/A MISG        N/A
JACKSON        SUNNY     88  74  63 CALM      30.01S HX  96
DYERSBURG      SUNNY    N/A N/A N/A MISG      29.99F
UNION CITY     SUNNY     88  75  66 CALM      30.00S HX  97
PARIS          MOSUNNY   86  72  62 N6        30.02S HX  92
HUNTINGDON     SUNNY     90  73  58 NW3       30.00S HX  98
LEXINGTON      SUNNY     90  73  58 CALM      30.00S HX  98
$$

TNZ008-025-027-028-033-062-065-066-311700-
NORTH MIDDLE TENNESSEE

CITY           SKY/WX    TMP DP  RH WIND       PRES   REMARKS
NASHVILLE      MOSUNNY   90  72  55 CALM      30.01F HX  97
PORTLAND       MOSUNNY   88  72  58 CALM      30.02S HX  94
CLARKSVILLE    SUNNY     88  72  58 N6        30.01S HX  94
SMYRNA         MOSUNNY   86  73  66 MISG      30.01F HX  93
COOKEVILLE     SUNNY     90  73  58 CALM      30.02S HX  98
GALLATIN       SUNNY     88  72  58 CALM      30.03F HX  94
CROSSVILLE     SUNNY     83  67  58 W8        30.08S
$$

TNZ061-075-076-078-094-096-097-311700-
SOUTH MIDDLE TENNESSEE

CITY           SKY/WX    TMP DP  RH WIND       PRES   REMARKS
FAYETTEVILLE   SUNNY     86  70  58 SW5       30.02F HX  90
TULLAHOMA      SUNNY     88  64  45 W3        30.04S
WINCHESTER     SUNNY     88  68  51 S5        30.02F HX  91
MCMINNVILLE    SUNNY     86  72  62 W7        30.03S HX  92
COLUMBIA       SUNNY     90  75  62 CALM      30.00S HX 100
SHELBYVILLE    SUNNY     90  73  58 W3        30.02F HX  98
$$

TNZ017-018-042-046-047-311700-
NORTHEAST TENNESSEE

CITY           SKY/WX    TMP DP  RH WIND       PRES   REMARKS
TRI CITIES     MOSUNNY   84  67  56 VRB3      30.05F
ELIZABETHTON   SUNNY     82  66  57 NW3       30.05F
$$

TNZ012-013-036-069-073-074-311700-
CENTRAL EAST TENNESSEE

CITY           SKY/WX    TMP DP  RH WIND       PRES   REMARKS
KNOXVILLE      MOSUNNY   87  65  47 SW7       30.01F
OAK RIDGE      SUNNY     87  68  52 CALM      30.03F HX  90
DOWNTOWN KNOXV SUNNY     88  68  51 W6        30.01F HX  91
GATLINBURG       N/A     88  64  45 CALM      30.02F
MORRISTOWN     SUNNY     84  68  58 NW9       30.04S
JACKSBORO      SUNNY     86  70  58 CALM      30.06S HX  90
$$

TNZ083-085-099-311700-
SOUTHEAST TENNESSEE

CITY           SKY/WX    TMP DP  RH WIND       PRES   REMARKS
CHATTANOOGA    MOSUNNY   88  65  46 CALM      30.01F HX  90
$$

SKY/WX REPORTED AS FAIR MEANS FEW OR NO CLOUDS BELOW
12 THOUSAND FEET.





USA.gov is the U.S. government's official web portal to all federal, state and local government web resources and services.